| time (UTC) | temp C | wind direction | speed KPH | gust KPH | rain 1hr cm | rain 24hr cm | rain mn cm | humidity % | barometer mb |
| 20260509134504 | 16 | 313 | 14.5 | 22.5 | 0.00 | 0.00 | 0.00 | 50 | 1016.1 |
| 20260509134004 | 16 | 308 | 16.1 | 22.5 | 0.00 | 0.00 | 0.00 | 50 | 1016.1 |
| 20260509133504 | 16 | 303 | 9.7 | 22.5 | 0.00 | 0.00 | 0.00 | 50 | 1016.1 |
| 20260509133004 | 16 | 306 | 9.7 | 22.5 | 0.00 | 0.00 | 0.00 | 50 | 1016.1 |
| 20260509132504 | 16 | 317 | 20.9 | 22.5 | 0.00 | 0.00 | 0.00 | 50 | 1016.1 |
| 20260509132004 | 16 | 320 | 12.9 | 22.5 | 0.00 | 0.00 | 0.00 | 50 | 1016.1 |
| 20260509131505 | 16 | 319 | 9.7 | 12.9 | 0.00 | 0.00 | 0.00 | 50 | 1016.1 |
| 20260509131003 | 16 | 324 | 4.8 | 12.9 | 0.00 | 0.00 | 0.00 | 50 | 1016.1 |
| 20260509130504 | 16 | 319 | 6.4 | 12.9 | 0.00 | 0.00 | 0.00 | 50 | 1016.1 |
| 20260509130005 | 17 | 323 | 11.3 | 11.3 | 0.00 | 0.00 | 0.00 | 50 | 1016.1 |
| 20260509125504 | 17 | 319 | 9.7 | 9.7 | 0.00 | 0.00 | 0.00 | 50 | 1016.1 |
| 20260509125003 | 17 | 327 | 6.4 | 12.9 | 0.00 | 0.00 | 0.00 | 50 | 1016.1 |
| 20260509124504 | 17 | 330 | 11.3 | 25.7 | 0.00 | 0.00 | 0.00 | 50 | 1016.1 |
| 20260509123504 | 17 | 311 | 11.3 | 25.7 | 0.00 | 0.00 | 0.00 | 50 | 1016.1 |
| 20260509123004 | 17 | 302 | 16.1 | 20.9 | 0.00 | 0.00 | 0.00 | 50 | 1016.1 |
| 20260509122505 | 17 | 306 | 14.5 | 16.1 | 0.00 | 0.00 | 0.00 | 50 | 1016.1 |
| 20260509122004 | 17 | 314 | 9.7 | 17.7 | 0.00 | 0.00 | 0.00 | 50 | 1016.1 |
| 20260509120503 | 17 | 300 | 9.7 | 20.9 | 0.00 | 0.00 | 0.00 | 50 | 1015.1 |
| 20260509115004 | 17 | 312 | 9.7 | 20.9 | 0.00 | 0.00 | 0.00 | 50 | 1015.1 |
| 20260509114504 | 17 | 317 | 12.9 | 19.3 | 0.00 | 0.00 | 0.00 | 50 | 1015.1 |
| 20260509114004 | 17 | 321 | 9.7 | 19.3 | 0.00 | 0.00 | 0.00 | 50 | 1015.1 |
| 20260509113504 | 17 | 322 | 17.7 | 19.3 | 0.00 | 0.00 | 0.00 | 50 | 1015.1 |
| 20260509113004 | 18 | 326 | 8.0 | 17.7 | 0.00 | 0.00 | 0.00 | 50 | 1015.1 |
| 20260509112504 | 18 | 311 | 9.7 | 24.1 | 0.00 | 0.00 | 0.00 | 50 | 1015.1 |
| 20260509112004 | 18 | 299 | 17.7 | 24.1 | 0.00 | 0.00 | 0.00 | 50 | 1015.1 |
| 20260509111506 | 18 | 299 | 14.5 | 17.7 | 0.00 | 0.00 | 0.00 | 50 | 1014.1 |
| 20260509111005 | 18 | 304 | 17.7 | 20.9 | 0.00 | 0.00 | 0.00 | 50 | 1014.1 |
| 20260509110504 | 18 | 305 | 16.1 | 20.9 | 0.00 | 0.00 | 0.00 | 50 | 1014.1 |
| 20260509110004 | 18 | 305 | 12.9 | 20.9 | 0.00 | 0.00 | 0.00 | 50 | 1014.1 |
| 20260509105505 | 18 | 297 | 9.7 | 9.7 | 0.00 | 0.00 | 0.00 | 50 | 1014.1 |
| 20260509105004 | 18 | 302 | 6.4 | 17.7 | 0.00 | 0.00 | 0.00 | 50 | 1014.1 |
| 20260509104504 | 18 | 295 | 9.7 | 17.7 | 0.00 | 0.00 | 0.00 | 50 | 1013.1 |
| 20260509104004 | 18 | 301 | 16.1 | 17.7 | 0.00 | 0.00 | 0.00 | 50 | 1013.1 |
| 20260509103504 | 18 | 320 | 12.9 | 16.1 | 0.00 | 0.00 | 0.00 | 50 | 1013.1 |
| 20260509103004 | 18 | 313 | 11.3 | 14.5 | 0.00 | 0.00 | 0.00 | 50 | 1014.1 |
| 20260509102504 | 18 | 305 | 9.7 | 16.1 | 0.00 | 0.00 | 0.00 | 50 | 1014.1 |
| 20260509101504 | 19 | 310 | 9.7 | 14.5 | 0.00 | 0.00 | 0.00 | 50 | 1014.1 |
| 20260509101004 | 19 | 306 | 6.4 | 20.9 | 0.00 | 0.00 | 0.00 | 50 | 1014.1 |
| 20260509100503 | 19 | 300 | 11.3 | 20.9 | 0.00 | 0.00 | 0.00 | 50 | 1014.1 |
| 20260509100005 | 19 | 300 | 16.1 | 20.9 | 0.00 | 0.00 | 0.00 | 50 | 1013.1 |
| 20260509095503 | 19 | 304 | 11.3 | 14.5 | 0.00 | 0.00 | 0.00 | 50 | 1013.1 |
| 20260509095004 | 20 | 309 | 3.2 | 14.5 | 0.00 | 0.00 | 0.00 | 50 | 1013.1 |
| 20260509094504 | 20 | 311 | 4.8 | 20.9 | 0.00 | 0.00 | 0.00 | 50 | 1012.1 |
| 20260509093504 | 20 | 304 | 14.5 | 20.9 | 0.00 | 0.00 | 0.00 | 50 | 1012.1 |
| 20260509092004 | 20 | 299 | 12.9 | 22.5 | 0.00 | 0.00 | 0.00 | 50 | 1012.1 |
| 20260509091504 | 20 | 306 | 12.9 | 24.1 | 0.00 | 0.00 | 0.00 | 50 | 1012.1 |
| 20260509091004 | 21 | 306 | 17.7 | 24.1 | 0.00 | 0.00 | 0.00 | 50 | 1012.1 |
| 20260509090504 | 21 | 302 | 14.5 | 29.0 | 0.00 | 0.00 | 0.00 | 50 | 1012.1 |
| 20260509090004 | 21 | 305 | 22.5 | 29.0 | 0.00 | 0.00 | 0.00 | 50 | 1011.1 |
| 20260509085504 | 21 | 304 | 19.3 | 24.1 | 0.00 | 0.00 | 0.00 | 50 | 1011.1 |
| 20260509085004 | 21 | 305 | 11.3 | 25.7 | 0.00 | 0.00 | 0.00 | 50 | 1011.1 |
| 20260509084504 | 21 | 309 | 17.7 | 25.7 | 0.00 | 0.00 | 0.00 | 50 | 1010.1 |
| 20260509084004 | 21 | 309 | 16.1 | 20.9 | 0.00 | 0.00 | 0.00 | 50 | 1010.1 |
| 20260509083503 | 22 | 310 | 11.3 | 17.7 | 0.00 | 0.00 | 0.00 | 50 | 1010.1 |
| 20260509083004 | 22 | 328 | 6.4 | 24.1 | 0.00 | 0.00 | 0.00 | 50 | 1010.1 |
| 20260509082504 | 22 | 327 | 8.0 | 32.2 | 0.00 | 0.00 | 0.00 | 50 | 1010.1 |
| 20260509082004 | 22 | 324 | 14.5 | 32.2 | 0.00 | 0.00 | 0.00 | 50 | 1010.1 |
| 20260509081504 | 22 | 326 | 24.1 | 29.0 | 0.00 | 0.00 | 0.00 | 50 | 1010.1 |
| 20260509081004 | 22 | 332 | 20.9 | 37.0 | 0.00 | 0.00 | 0.00 | 50 | 1010.1 |
| 20260509080505 | 22 | 327 | 25.7 | 37.0 | 0.00 | 0.00 | 0.00 | 50 | 1010.1 |
| 20260509080004 | 22 | 310 | 19.3 | 41.8 | 0.00 | 0.00 | 0.00 | 50 | 1010.1 |
| 20260509075503 | 22 | 309 | 16.1 | 41.8 | 0.00 | 0.00 | 0.00 | 50 | 1010.1 |
| 20260509075004 | 23 | 320 | 27.4 | 35.4 | 0.00 | 0.00 | 0.00 | 50 | 1010.1 |
| 20260509074505 | 23 | 323 | 27.4 | 40.2 | 0.00 | 0.00 | 0.00 | 50 | 1010.1 |
| 20260509074004 | 23 | 321 | 22.5 | 40.2 | 0.00 | 0.00 | 0.00 | 50 | 1010.1 |
| 20260509073504 | 23 | 316 | 27.4 | 35.4 | 0.00 | 0.00 | 0.00 | 50 | 1010.1 |
| 20260509073004 | 23 | 313 | 22.5 | 33.8 | 0.00 | 0.00 | 0.00 | 50 | 1010.1 |
| 20260509072504 | 23 | 311 | 24.1 | 30.6 | 0.00 | 0.00 | 0.00 | 50 | 1010.1 |
| 20260509072003 | 23 | 312 | 9.7 | 37.0 | 0.00 | 0.00 | 0.00 | 50 | 1010.1 |
| 20260509071504 | 23 | 310 | 20.9 | 37.0 | 0.00 | 0.00 | 0.00 | 50 | 1010.1 |
| 20260509071004 | 23 | 319 | 17.7 | 37.0 | 0.00 | 0.00 | 0.00 | 50 | 1010.1 |
| 20260509070504 | 23 | 318 | 14.5 | 37.0 | 0.00 | 0.00 | 0.00 | 50 | 1010.1 |
| 20260509070004 | 23 | 304 | 16.1 | 27.4 | 0.00 | 0.00 | 0.00 | 50 | 1010.1 |
| 20260509065504 | 23 | 311 | 14.5 | 29.0 | 0.00 | 0.00 | 0.00 | 50 | 1010.1 |
| 20260509065003 | 23 | 319 | 14.5 | 35.4 | 0.00 | 0.00 | 0.00 | 50 | 1010.1 |
| 20260509064504 | 23 | 316 | 20.9 | 35.4 | 0.00 | 0.00 | 0.00 | 50 | 1010.1 |
| 20260509064004 | 23 | 312 | 16.1 | 33.8 | 0.00 | 0.00 | 0.00 | 50 | 1010.1 |
| 20260509063504 | 23 | 318 | 20.9 | 33.8 | 0.00 | 0.00 | 0.00 | 50 | 1010.1 |
| 20260509063004 | 23 | 323 | 17.7 | 38.6 | 0.00 | 0.00 | 0.00 | 50 | 1010.1 |
| 20260509062504 | 23 | 318 | 20.9 | 38.6 | 0.00 | 0.00 | 0.00 | 50 | 1010.1 |
| 20260509062004 | 23 | 330 | 24.1 | 29.0 | 0.00 | 0.00 | 0.00 | 50 | 1010.1 |
| 20260509061504 | 23 | 328 | 19.3 | 29.0 | 0.00 | 0.00 | 0.00 | 50 | 1010.1 |
| 20260509061004 | 23 | 312 | 17.7 | 29.0 | 0.00 | 0.00 | 0.00 | 50 | 1010.1 |
| 20260509060504 | 23 | 316 | 20.9 | 37.0 | 0.00 | 0.00 | 0.00 | 50 | 1010.1 |
| 20260509060005 | 23 | 317 | 20.9 | 38.6 | 0.00 | 0.00 | 0.00 | 50 | 1010.1 |
| 20260509055504 | 23 | 318 | 27.4 | 38.6 | 0.00 | 0.00 | 0.00 | 50 | 1010.1 |
| 20260509054504 | 23 | 328 | 29.0 | 48.3 | 0.00 | 0.00 | 0.00 | 50 | 1010.1 |
| 20260509054004 | 23 | 326 | 33.8 | 41.8 | 0.00 | 0.00 | 0.00 | 50 | 1010.1 |
| 20260509053003 | 23 | 327 | 14.5 | 33.8 | 0.00 | 0.00 | 0.00 | 50 | 1010.1 |
| 20260509052504 | 23 | 316 | 20.9 | 38.6 | 0.00 | 0.00 | 0.00 | 50 | 1010.1 |
| 20260509052004 | 23 | 307 | 24.1 | 45.1 | 0.00 | 0.00 | 0.00 | 50 | 1010.1 |
| 20260509051504 | 23 | 310 | 25.7 | 45.1 | 0.00 | 0.00 | 0.00 | 50 | 1010.1 |
| 20260509051004 | 23 | 310 | 20.9 | 33.8 | 0.00 | 0.00 | 0.00 | 50 | 1010.1 |
| 20260509050504 | 23 | 323 | 25.7 | 33.8 | 0.00 | 0.00 | 0.00 | 50 | 1010.1 |
| 20260509050004 | 23 | 330 | 16.1 | 40.2 | 0.00 | 0.00 | 0.00 | 50 | 1010.1 |
| 20260509045504 | 23 | 326 | 17.7 | 40.2 | 0.00 | 0.00 | 0.00 | 50 | 1010.1 |
| 20260509045004 | 23 | 320 | 17.7 | 35.4 | 0.00 | 0.00 | 0.00 | 50 | 1010.1 |
| 20260509044504 | 23 | 312 | 16.1 | 45.1 | 0.00 | 0.00 | 0.00 | 50 | 1011.1 |
| 20260509044003 | 23 | 305 | 32.2 | 45.1 | 0.00 | 0.00 | 0.00 | 50 | 1011.1 |
| 20260509043504 | 23 | 304 | 25.7 | 48.3 | 0.00 | 0.00 | 0.00 | 50 | 1011.1 |
| 20260509043004 | 23 | 323 | 33.8 | 48.3 | 0.00 | 0.00 | 0.00 | 50 | 1011.1 |
| 20260509042504 | 23 | 326 | 16.1 | 45.1 | 0.00 | 0.00 | 0.00 | 50 | 1011.1 |
| 20260509042004 | 23 | 315 | 33.8 | 45.1 | 0.00 | 0.00 | 0.00 | 50 | 1011.1 |
| 20260509041504 | 23 | 314 | 24.1 | 38.6 | 0.00 | 0.00 | 0.00 | 50 | 1011.1 |
| 20260509041003 | 23 | 323 | 16.1 | 37.0 | 0.00 | 0.00 | 0.00 | 50 | 1011.1 |
| 20260509040504 | 23 | 323 | 20.9 | 45.1 | 0.00 | 0.00 | 0.00 | 50 | 1011.1 |
| 20260509040005 | 23 | 319 | 29.0 | 45.1 | 0.00 | 0.00 | 0.00 | 50 | 1011.1 |
| 20260509035004 | 23 | 322 | 38.6 | 53.1 | 0.00 | 0.00 | 0.00 | 50 | 1011.1 |
| 20260509034004 | 23 | 317 | 33.8 | 54.7 | 0.00 | 0.00 | 0.00 | 50 | 1011.1 |
| 20260509033504 | 23 | 320 | 33.8 | 51.5 | 0.00 | 0.00 | 0.00 | 50 | 1011.1 |
| 20260509033004 | 23 | 319 | 32.2 | 56.3 | 0.00 | 0.00 | 0.00 | 50 | 1011.1 |
| 20260509032503 | 23 | 319 | 41.8 | 56.3 | 0.00 | 0.00 | 0.00 | 50 | 1011.1 |
| 20260509031504 | 23 | 325 | 27.4 | 46.7 | 0.00 | 0.00 | 0.00 | 50 | 1011.1 |
| 20260509031004 | 23 | 332 | 30.6 | 48.3 | 0.00 | 0.00 | 0.00 | 50 | 1011.1 |
| 20260509030503 | 23 | 334 | 33.8 | 48.3 | 0.00 | 0.00 | 0.00 | 50 | 1011.1 |
| 20260509030004 | 23 | 324 | 24.1 | 48.3 | 0.00 | 0.00 | 0.00 | 50 | 1011.1 |
| 20260509025503 | 23 | 311 | 30.6 | 45.1 | 0.00 | 0.00 | 0.00 | 50 | 1011.1 |
| 20260509024503 | 23 | 318 | 32.2 | 49.9 | 0.00 | 0.00 | 0.00 | 50 | 1011.1 |
| 20260509022504 | 22 | 325 | 22.5 | 43.5 | 0.00 | 0.00 | 0.00 | 50 | 1011.1 |
| 20260509022004 | 22 | 332 | 24.1 | 43.5 | 0.00 | 0.00 | 0.00 | 50 | 1011.1 |
| 20260509021504 | 22 | 319 | 27.4 | 56.3 | 0.00 | 0.00 | 0.00 | 50 | 1011.1 |
| 20260509021004 | 21 | 309 | 30.6 | 56.3 | 0.00 | 0.00 | 0.00 | 50 | 1011.1 |
| 20260509020504 | 22 | 316 | 27.4 | 48.3 | 0.00 | 0.00 | 0.00 | 50 | 1011.1 |
| 20260509020004 | 22 | 318 | 38.6 | 48.3 | 0.00 | 0.00 | 0.00 | 50 | 1011.1 |
| 20260509015503 | 22 | 316 | 37.0 | 56.3 | 0.00 | 0.00 | 0.00 | 50 | 1011.1 |
| 20260509014504 | 22 | 312 | 32.2 | 48.3 | 0.00 | 0.00 | 0.00 | 50 | 1011.1 |
| 20260509014004 | 21 | 309 | 38.6 | 67.6 | 0.00 | 0.00 | 0.00 | 50 | 1011.1 |
| 20260509013503 | 21 | 310 | 32.2 | 67.6 | 0.00 | 0.00 | 0.00 | 50 | 1011.1 |
| 20260509013004 | 21 | 308 | 29.0 | 59.5 | 0.00 | 0.00 | 0.00 | 50 | 1011.1 |
| 20260509012504 | 21 | 312 | 33.8 | 53.1 | 0.00 | 0.00 | 0.00 | 50 | 1011.1 |
| 20260509012005 | 21 | 319 | 24.1 | 59.5 | 0.00 | 0.00 | 0.00 | 50 | 1011.1 |
| 20260509011504 | 21 | 325 | 35.4 | 59.5 | 0.00 | 0.00 | 0.00 | 50 | 1011.1 |
| 20260509011004 | 21 | 325 | 33.8 | 53.1 | 0.00 | 0.00 | 0.00 | 50 | 1011.1 |
| 20260509010504 | 21 | 314 | 27.4 | 53.1 | 0.00 | 0.00 | 0.00 | 50 | 1011.1 |
| 20260509010005 | 21 | 312 | 35.4 | 57.9 | 0.00 | 0.00 | 0.00 | 50 | 1011.1 |
| 20260509005504 | 21 | 314 | 33.8 | 57.9 | 0.00 | 0.00 | 0.00 | 50 | 1011.1 |
| 20260509005005 | 21 | 317 | 41.8 | 45.1 | 0.00 | 0.00 | 0.00 | 50 | 1011.1 |
| 20260509004503 | 21 | 316 | 24.1 | 53.1 | 0.00 | 0.00 | 0.00 | 50 | 1012.1 |
| 20260509004003 | 20 | 312 | 33.8 | 64.4 | 0.00 | 0.00 | 0.00 | 50 | 1012.1 |
| 20260509003503 | 20 | 308 | 53.1 | 64.4 | 0.00 | 0.00 | 0.00 | 50 | 1012.1 |
| 20260509003004 | 20 | 305 | 37.0 | 51.5 | 0.00 | 0.00 | 0.00 | 50 | 1011.1 |
| 20260509002504 | 20 | 311 | 37.0 | 45.1 | 0.00 | 0.00 | 0.00 | 50 | 1011.1 |
| 20260509002004 | 20 | 313 | 33.8 | 45.1 | 0.00 | 0.00 | 0.00 | 50 | 1011.1 |
| 20260509001504 | 19 | 315 | 25.7 | 45.1 | 0.00 | 0.00 | 0.00 | 50 | 1012.1 |
| 20260509001004 | 19 | 317 | 27.4 | 45.1 | 0.00 | 0.00 | 0.00 | 50 | 1012.1 |
| 20260509000504 | 18 | 313 | 29.0 | 46.7 | 0.00 | 0.00 | 0.00 | 50 | 1012.1 |
| 20260509000004 | 18 | 314 | 35.4 | 46.7 | 0.00 | 0.00 | 0.00 | 50 | 1012.1 |
| 20260508235503 | 18 | 311 | 24.1 | 51.5 | 0.00 | 0.00 | 0.00 | 50 | 1012.1 |
| 20260508235005 | 18 | 311 | 30.6 | 51.5 | 0.00 | 0.00 | 0.00 | 50 | 1012.1 |
| 20260508234503 | 17 | 309 | 33.8 | 48.3 | 0.00 | 0.00 | 0.00 | 50 | 1013.1 |
| 20260508234004 | 17 | 310 | 37.0 | 48.3 | 0.00 | 0.00 | 0.00 | 50 | 1013.1 |
| 20260508233504 | 17 | 314 | 30.6 | 49.9 | 0.00 | 0.00 | 0.00 | 50 | 1013.1 |
| 20260508232504 | 17 | 308 | 30.6 | 48.3 | 0.00 | 0.00 | 0.00 | 50 | 1012.1 |
| 20260508232003 | 17 | 310 | 27.4 | 51.5 | 0.00 | 0.00 | 0.00 | 50 | 1012.1 |
| 20260508231504 | 17 | 315 | 32.2 | 51.5 | 0.00 | 0.00 | 0.00 | 50 | 1011.1 |
| 20260508231004 | 17 | 321 | 29.0 | 48.3 | 0.00 | 0.00 | 0.00 | 50 | 1011.1 |
| 20260508230504 | 17 | 321 | 41.8 | 53.1 | 0.00 | 0.00 | 0.00 | 50 | 1011.1 |
| 20260508225504 | 16 | 318 | 29.0 | 57.9 | 0.00 | 0.00 | 0.00 | 50 | 1011.1 |
| 20260508225004 | 16 | 312 | 27.4 | 57.9 | 0.00 | 0.00 | 0.00 | 50 | 1011.1 |
| 20260508224503 | 16 | 310 | 25.7 | 51.5 | 0.00 | 0.00 | 0.00 | 50 | 1011.1 |
| 20260508224004 | 16 | 313 | 33.8 | 59.5 | 0.00 | 0.00 | 0.00 | 50 | 1011.1 |
| 20260508223503 | 16 | 317 | 38.6 | 59.5 | 0.00 | 0.00 | 0.00 | 50 | 1011.1 |
| 20260508223004 | 16 | 320 | 29.0 | 41.8 | 0.00 | 0.00 | 0.00 | 50 | 1011.1 |
| 20260508222504 | 16 | 319 | 30.6 | 40.2 | 0.00 | 0.00 | 0.00 | 50 | 1011.1 |
| 20260508222005 | 16 | 319 | 24.1 | 38.6 | 0.00 | 0.00 | 0.00 | 50 | 1011.1 |
| 20260508221503 | 16 | 327 | 30.6 | 43.5 | 0.00 | 0.00 | 0.00 | 50 | 1010.1 |
| 20260508221005 | 17 | 319 | 25.7 | 43.5 | 0.00 | 0.00 | 0.00 | 50 | 1010.1 |
| 20260508220504 | 17 | 312 | 33.8 | 43.5 | 0.00 | 0.00 | 0.00 | 50 | 1010.1 |
| 20260508215004 | 16 | 324 | 24.1 | 46.7 | 0.00 | 0.00 | 0.00 | 50 | 1010.1 |
| 20260508214504 | 16 | 324 | 22.5 | 46.7 | 0.00 | 0.00 | 0.00 | 50 | 1011.1 |
| 20260508214004 | 16 | 315 | 24.1 | 40.2 | 0.00 | 0.00 | 0.00 | 50 | 1011.1 |
| 20260508213504 | 16 | 306 | 27.4 | 43.5 | 0.00 | 0.00 | 0.00 | 50 | 1011.1 |
| 20260508213004 | 15 | 311 | 27.4 | 43.5 | 0.00 | 0.00 | 0.00 | 50 | 1013.1 |
| 20260508212505 | 15 | 321 | 22.5 | 41.8 | 0.00 | 0.00 | 0.00 | 50 | 1013.1 |
| 20260508212004 | 15 | 321 | 22.5 | 30.6 | 0.00 | 0.00 | 0.00 | 50 | 1013.1 |
| 20260508211504 | 15 | 311 | 19.3 | 30.6 | 0.00 | 0.00 | 0.00 | 50 | 1012.1 |
| 20260508210504 | 15 | 309 | 25.7 | 38.6 | 0.00 | 0.00 | 0.00 | 50 | 1012.1 |
| 20260508210004 | 15 | 315 | 17.7 | 30.6 | 0.00 | 0.00 | 0.00 | 50 | 1012.1 |
| 20260508205504 | 15 | 311 | 9.7 | 30.6 | 0.00 | 0.00 | 0.00 | 50 | 1012.1 |
| 20260508205004 | 15 | 312 | 14.5 | 30.6 | 0.00 | 0.00 | 0.00 | 50 | 1012.1 |
| 20260508204505 | 15 | 311 | 12.9 | 22.5 | 0.00 | 0.00 | 0.00 | 50 | 1012.1 |
| 20260508204004 | 15 | 310 | 14.5 | 22.5 | 0.00 | 0.00 | 0.00 | 50 | 1012.1 |
| 20260508203504 | 14 | 309 | 17.7 | 27.4 | 0.00 | 0.00 | 0.00 | 50 | 1012.1 |
| 20260508202004 | 13 | 314 | 14.5 | 27.4 | 0.00 | 0.00 | 0.00 | 50 | 1012.1 |
| 20260508201504 | 13 | 313 | 17.7 | 29.0 | 0.00 | 0.00 | 0.00 | 50 | 1013.1 |
| 20260508201004 | 13 | 315 | 16.1 | 29.0 | 0.00 | 0.00 | 0.00 | 50 | 1013.1 |
| 20260508200504 | 13 | 322 | 14.5 | 29.0 | 0.00 | 0.00 | 0.00 | 50 | 1013.1 |
| 20260508200004 | 13 | 317 | 17.7 | 29.0 | 0.00 | 0.00 | 0.00 | 50 | 1012.1 |
| 20260508195504 | 14 | 305 | 17.7 | 29.0 | 0.00 | 0.00 | 0.00 | 50 | 1012.1 |
| 20260508195004 | 14 | 312 | 17.7 | 24.1 | 0.00 | 0.00 | 0.00 | 50 | 1012.1 |
| 20260508194504 | 14 | 318 | 17.7 | 27.4 | 0.00 | 0.00 | 0.00 | 50 | 1012.1 |
| 20260508194004 | 14 | 313 | 17.7 | 35.4 | 0.00 | 0.00 | 0.00 | 50 | 1012.1 |
| 20260508193504 | 14 | 311 | 29.0 | 41.8 | 0.00 | 0.00 | 0.00 | 50 | 1012.1 |
| 20260508192504 | 14 | 318 | 17.7 | 35.4 | 0.00 | 0.00 | 0.00 | 50 | 1011.1 |
| 20260508192003 | 14 | 311 | 16.1 | 35.4 | 0.00 | 0.00 | 0.00 | 50 | 1011.1 |
| 20260508191003 | 14 | 316 | 25.7 | 41.8 | 0.00 | 0.00 | 0.00 | 50 | 1011.1 |
| 20260508190504 | 14 | 322 | 27.4 | 33.8 | 0.00 | 0.00 | 0.00 | 50 | 1011.1 |
| 20260508190003 | 14 | 323 | 25.7 | 30.6 | 0.00 | 0.00 | 0.00 | 50 | 1011.1 |
| 20260508185504 | 14 | 323 | 20.9 | 38.6 | 0.00 | 0.00 | 0.00 | 50 | 1011.1 |
| 20260508184504 | 14 | 315 | 16.1 | 30.6 | 0.00 | 0.00 | 0.00 | 50 | 1011.1 |
| 20260508184004 | 15 | 315 | 27.4 | 33.8 | 0.00 | 0.00 | 0.00 | 50 | 1011.1 |
| 20260508183504 | 15 | 314 | 17.7 | 35.4 | 0.00 | 0.00 | 0.00 | 50 | 1011.1 |
| 20260508183004 | 15 | 312 | 19.3 | 35.4 | 0.00 | 0.00 | 0.00 | 50 | 1011.1 |
| 20260508182004 | 15 | 316 | 20.9 | 40.2 | 0.00 | 0.00 | 0.00 | 50 | 1011.1 |
| 20260508181504 | 15 | 311 | 20.9 | 38.6 | 0.00 | 0.00 | 0.00 | 50 | 1011.1 |
| 20260508180504 | 15 | 302 | 22.5 | 38.6 | 0.00 | 0.00 | 0.00 | 50 | 1011.1 |
| 20260508180004 | 15 | 308 | 16.1 | 40.2 | 0.00 | 0.00 | 0.00 | 50 | 1010.1 |
| 20260508175503 | 15 | 304 | 32.2 | 40.2 | 0.00 | 0.00 | 0.00 | 50 | 1010.1 |
| 20260508175004 | 14 | 306 | 27.4 | 40.2 | 0.00 | 0.00 | 0.00 | 50 | 1010.1 |
| 20260508174504 | 14 | 309 | 17.7 | 37.0 | 0.00 | 0.00 | 0.00 | 50 | 1009.1 |
| 20260508174004 | 14 | 304 | 29.0 | 27.4 | 0.00 | 0.00 | 0.00 | 50 | 1009.1 |
| 20260508173503 | 14 | 313 | 22.5 | 35.4 | 0.00 | 0.00 | 0.00 | 50 | 1009.1 |
| 20260508173003 | 14 | 314 | 22.5 | 40.2 | 0.00 | 0.00 | 0.00 | 50 | 1010.1 |
| 20260508172503 | 14 | 320 | 17.7 | 40.2 | 0.00 | 0.00 | 0.00 | 50 | 1010.1 |
| 20260508172004 | 14 | 322 | 24.1 | 27.4 | 0.00 | 0.00 | 0.00 | 50 | 1010.1 |
| 20260508171505 | 14 | 315 | 20.9 | 27.4 | 0.00 | 0.00 | 0.00 | 50 | 1010.1 |
| 20260508171004 | 14 | 321 | 6.4 | 22.5 | 0.00 | 0.00 | 0.00 | 50 | 1010.1 |
| 20260508170504 | 14 | 310 | 17.7 | 22.5 | 0.00 | 0.00 | 0.00 | 50 | 1010.1 |
| 20260508170004 | 14 | 297 | 11.3 | 20.9 | 0.00 | 0.00 | 0.00 | 50 | 1010.1 |
| 20260508165504 | 15 | 303 | 6.4 | 25.7 | 0.00 | 0.00 | 0.00 | 50 | 1010.1 |
| 20260508165004 | 15 | 305 | 17.7 | 25.7 | 0.00 | 0.00 | 0.00 | 50 | 1010.1 |
| 20260508164504 | 15 | 303 | 8.0 | 19.3 | 0.00 | 0.00 | 0.00 | 50 | 1010.1 |
| 20260508164004 | 15 | 301 | 12.9 | 19.3 | 0.00 | 0.00 | 0.00 | 50 | 1010.1 |
| 20260508163503 | 15 | 296 | 6.4 | 24.1 | 0.00 | 0.00 | 0.00 | 50 | 1010.1 |
| 20260508163003 | 15 | 303 | 9.7 | 29.0 | 0.00 | 0.00 | 0.00 | 50 | 1010.1 |
| 20260508162503 | 15 | 312 | 14.5 | 29.0 | 0.00 | 0.00 | 0.00 | 50 | 1010.1 |
| 20260508162003 | 15 | 317 | 16.1 | 24.1 | 0.00 | 0.00 | 0.00 | 50 | 1010.1 |
| 20260508161504 | 15 | 317 | 11.3 | 27.4 | 0.00 | 0.00 | 0.00 | 50 | 1010.1 |
| 20260508161003 | 15 | 317 | 19.3 | 27.4 | 0.00 | 0.00 | 0.00 | 50 | 1010.1 |
| 20260508160505 | 15 | 309 | 17.7 | 29.0 | 0.00 | 0.00 | 0.00 | 50 | 1010.1 |
| 20260508160004 | 15 | 305 | 24.1 | 29.0 | 0.00 | 0.00 | 0.00 | 50 | 1010.1 |
| 20260508155504 | 15 | 310 | 12.9 | 32.2 | 0.00 | 0.00 | 0.00 | 50 | 1010.1 |
| 20260508155004 | 15 | 309 | 20.9 | 32.2 | 0.00 | 0.00 | 0.00 | 50 | 1010.1 |
| 20260508154504 | 15 | 308 | 24.1 | 27.4 | 0.00 | 0.00 | 0.00 | 50 | 1010.1 |
| 20260508154004 | 15 | 320 | 22.5 | 48.3 | 0.00 | 0.00 | 0.00 | 50 | 1010.1 |
| 20260508153504 | 15 | 320 | 27.4 | 48.3 | 0.00 | 0.00 | 0.00 | 50 | 1010.1 |
| 20260508153004 | 15 | 321 | 30.6 | 48.3 | 0.00 | 0.00 | 0.00 | 50 | 1009.1 |
| 20260508152004 | 16 | 316 | 30.6 | 43.5 | 0.00 | 0.00 | 0.00 | 50 | 1009.1 |
| 20260508151504 | 16 | 307 | 27.4 | 37.0 | 0.00 | 0.00 | 0.00 | 50 | 1009.1 |
| 20260508151003 | 16 | 310 | 25.7 | 37.0 | 0.00 | 0.00 | 0.00 | 50 | 1009.1 |
| 20260508150503 | 16 | 315 | 25.7 | 41.8 | 0.00 | 0.00 | 0.00 | 50 | 1009.1 |
| 20260508145504 | 16 | 319 | 16.1 | 37.0 | 0.00 | 0.00 | 0.00 | 50 | 1009.1 |
| 20260508145004 | 16 | 312 | 16.1 | 40.2 | 0.00 | 0.00 | 0.00 | 50 | 1009.1 |
| 20260508144005 | 16 | 328 | 17.7 | 32.2 | 0.00 | 0.00 | 0.00 | 50 | 1009.1 |
| 20260508143004 | 16 | 330 | 17.7 | 29.0 | 0.00 | 0.00 | 0.00 | 50 | 1010.1 |
| 20260508142504 | 16 | 332 | 16.1 | 53.1 | 0.00 | 0.00 | 0.00 | 50 | 1010.1 |
| 20260508142004 | 16 | 334 | 27.4 | 53.1 | 0.00 | 0.00 | 0.00 | 50 | 1010.1 |
| 20260508141003 | 16 | 336 | 30.6 | 49.9 | 0.00 | 0.00 | 0.00 | 50 | 1010.1 |
| 20260508140005 | 16 | 333 | 22.5 | 43.5 | 0.00 | 0.00 | 0.00 | 50 | 1009.1 |